Volver al catálogo

STARLINK-5673

ActivoComunicacionesVLEO
NORAD 55462·PAYLOAD·🇺🇸 United States

Lanzado Feb 2, 2023 desde Cape Canaveral Space Force Station

Loading…

Próximos Pases (próximas 24 horas)

TLE

ActualizadoSource: CelesTrak SupGP

Época: Sep 14, 2026, 22:10 UTC

1 55462C 23015P   26257.92409722 -.00033126  00000+0 -11998-2 0  2573
2 55462  43.0019 339.8156 0001550 273.1700 151.9692 15.27596140    11

Sigue STARLINK-5673 en tiempo real con AllMySat

Download on the App Store